This demonstration page uses our WeatherBlox Daily Observations layout. Learn more.

Left ArrowRight Arrow

33.98154, -81.23621

Hourly Observations for August 8, 2022

Temp ( °F °C ) Dew Point ( °F °C ) Humidity (%) Winds ( mph kmh ) Pressure ( in mb ) Visibility ( mi km ) Precip ( " mm )
12:56 am 00:56 Mostly Clear 75 23.9 73 22.8 94 94 Calm 30.15 1021 10 16 0.00 0.00
1:56 am 01:56 Mostly Clear 74 23.3 72 22.2 94 94 Calm 30.15 1021 10 16 0.00 0.00
2:56 am 02:56 Mostly Clear 74 23.3 72 22.2 94 94 Calm 30.13 1020 10 16 0.00 0.00
3:56 am 03:56 Clear 74 23.3 72 22.2 94 94 Calm 30.12 1020 10 16 0.00 0.00
4:56 am 04:56 Clear 73 22.8 71 21.7 94 94 Calm 30.12 1020 10 16 0.00 0.00
5:56 am 05:56 Clear 73 22.8 71 21.7 94 94 Calm 30.12 1020 10 16 0.00 0.00
6:56 am 06:56 Mostly Sunny 72 22.2 71 21.7 97 97 SW 3 6 30.13 1020 10 16 0.00 0.00
7:56 am 07:56 Partly Cloudy with Mist and Fog 73 22.8 72 22.2 96 96 S 5 7 30.15 1021 6 10 0.00 0.00
8:01 am 08:01 Partly Cloudy 73 22.8 72 22.2 96 96 S 6 9 30.15 1021 7 11 0.00 0.00
8:56 am 08:56 Partly Cloudy 77 25 73 22.8 88 88 Calm 30.16 1021 10 16 0.00 0.00
9:56 am 09:56 Partly Cloudy 82 27.8 73 22.8 74 74 WSW 7 11 30.15 1021 10 16 0.00 0.00
10:56 am 10:56 Mostly Sunny 85 29.4 72 22.2 65 65 S 9 15 30.15 1021 10 16 0.00 0.00
11:56 am 11:56 Mostly Cloudy 86 30 71 21.7 61 61 SW 5 7 30.14 1021 10 16 0.00 0.00
12:56 pm 12:56 Mostly Cloudy 88 31.1 71 21.7 57 57 S 9 15 30.12 1020 10 16 0.00 0.00
1:56 pm 13:56 Mostly Cloudy 90 32.2 72 22.2 56 56 VRB 3 6 30.09 1019 10 16 0.00 0.00
2:56 pm 14:56 Mostly Cloudy 90 32.2 71 21.7 54 54 SSE 8 13 30.07 1018 10 16 0.00 0.00
3:56 pm 15:56 Mostly Cloudy 91 32.8 71 21.7 52 52 S 8 13 30.05 1018 10 16 0.00 0.00
4:56 pm 16:56 Mostly Cloudy 91 32.8 69 20.6 49 49 S 7 11 30.03 1017 10 16 0.00 0.00
5:56 pm 17:56 Mostly Cloudy 89 31.7 73 22.8 59 59 ESE 8 13 30.03 1017 10 16 0.00 0.00
6:12 pm 18:12 Mostly Cloudy with Nearby Thunderstorms 88 31.1 73 22.8 61 61 SE 10 17 30.04 1017 10 16 0.00 0.00
6:24 pm 18:24 Mostly Cloudy with Heavy Rain 86 30 74 23.3 67 67 S 10 17 30.04 1017 3 4 0.04 1.02
6:34 pm 18:34 Mostly Cloudy with Nearby Thunderstorms 82 27.8 75 23.9 79 79 ENE 8 13 30.04 1017 4 6 0.14 3.56
6:56 pm 18:56 Mostly Cloudy with Nearby Thunderstorms 84 28.9 76 24.4 77 77 SW 8 13 30.04 1017 6 10 0.30 7.62
7:56 pm 19:56 Mostly Cloudy 79 26.1 74 23.3 85 85 S 3 6 30.07 1018 10 16 0.01 0.13
8:56 pm 20:56 Partly Cloudy 79 26.1 73 22.8 82 82 SW 6 9 30.06 1018 10 16 0.01 0.25
9:56 pm 21:56 Mostly Cloudy 78 25.6 74 23.3 87 87 SSE 3 6 30.09 1019 10 16 0.00 0.00
10:56 pm 22:56 Mostly Cloudy 78 25.6 74 23.3 87 87 VRB 3 6 30.10 1019 10 16 0.00 0.00
11:56 pm 23:56 Mostly Cloudy 77 25 72 22.2 84 84 SW 3 6 30.10 1019 10 16 0.00 0.00

Powered by AerisWeather